Wind_Speed
24 25 25 25 26 27 27 27 27 27 28 28 27 27 26 25 24 24 24 24 24 24 23 23 22 22 23 24 23 22 22 21 21 21 21 20 20 19 19 18 18 18 19
25 25 27 27 27 28 28 29 29 28 28 28 27 27 27 27 26 26 26 26 26 25 24 24 24 24 25 25 25 25 24 23 23 22 22 22 21 21 21 20 20 20 20
26 26 26 27 28 28 28 28 29 29 29 28 28 28 28 28 28 27 27 27 27 27 26 27 27 26 26 26 26 27 27 25 25 24 23 23 23 23 22 22 22 22 22
27 27 27 27 28 28 28 28 28 29 30 28 27 28 29 29 29 30 30 29 29 29 29 28 28 28 27 27 28 28 29 28 27 27 26 25 25 25 24 24 24 24 23
28 28 29 29 29 29 29 29 28 29 29 29 29 29 30 30 30 30 31 31 31 31 30 30 29 30 29 29 30 29 29 29 29 28 28 27 27 26 26 25 26 25 25
30 30 30 30 30 30 30 30 30 30 30 31 31 31 31 32 32 31 31 32 33 32 32 32 31 31 31 31 31 30 29 30 30 29 29 29 28 28 28 27 27 27 26
30 30 30 30 31 30 31 31 31 31 31 31 32 32 32 33 33 32 32 32 33 33 34 34 33 33 33 32 32 31 31 31 31 31 31 31 31 30 30 30 29 29 29
30 31 31 32 32 32 32 33 33 32 32 32 32 33 33 34 34 33 33 33 33 34 34 35 35 34 34 33 32 33 32 32 32 32 32 32 32 32 31 31 30 30 30
31 31 32 32 32 32 32 32 33 33 33 32 32 33 33 32 33 33 33 33 33 34 34 35 35 35 34 34 34 34 34 33 33 33 33 33 33 33 32 32 31 31 32
32 32 32 32 32 32 32 32 32 32 32 32 32 32 32 32 32 32 33 33 34 35 35 35 35 35 35 34 34 35 35 35 35 35 35 34 34 33 33 33 33 33 32
30 31 31 32 32 31 31 31 31 31 31 32 32 32 32 32 32 33 33 33 34 34 34 35 35 35 35 35 36 36 36 37 37 36 36 35 35 35 35 34 33 33 32
29 29 30 30 30 30 29 29 29 30 30 29 30 31 31 32 32 33 32 32 32 33 33 34 35 35 36 36 36 37 37 38 39 38 37 36 36 36 35 34 33 33 33
29 29 29 28 29 29 28 29 29 29 29 28 29 29 30 31 31 31 31 30 30 31 31 32 33 34 35 36 36 36 37 38 39 39 39 38 37 36 36 35 34 34 34
29 29 28 28 28 28 28 28 28 27 28 28 28 29 29 30 30 30 30 30 30 30 31 31 33 33 34 35 35 35 36 37 37 38 39 39 37 36 36 35 34 34 34
28 28 27 27 27 27 27 27 27 26 26 27 27 27 28 28 29 29 30 30 29 28 30 31 32 33 34 33 34 34 35 35 36 36 36 37 38 37 37 36 35 35 35
26 25 25 26 24 24 25 25 25 25 26 26 26 26 27 27 28 28 28 29 29 29 28 30 32 33 34 34 35 34 35 35 35 36 37 36 36 37 37 38 38 37 36
24 24 24 24 24 23 24 24 24 25 25 25 26 26 26 26 26 26 26 27 27 27 28 29 30 31 33 34 34 35 35 35 36 35 35 36 36 36 37 38 38 37 37
24 24 23 23 23 23 23 23 24 24 24 24 25 25 25 25 25 25 25 25 26 26 27 28 29 31 32 33 32 33 34 34 34 35 35 36 36 37 37 36 37 37 37
22 22 22 22 22 23 23 23 24 23 23 23 23 23 24 24 25 24 24 24 24 25 25 25 26 29 30 31 32 32 32 32 33 34 34 35 35 36 37 37 38 37 37
21 22 21 21 22 21 21 22 21 21 21 21 21 21 22 23 23 23 23 23 23 24 24 24 24 26 28 30 30 30 31 32 32 33 33 34 34 34 36 36 36 37 36
21 21 21 20 20 19 18 18 19 20 19 19 19 20 20 21 22 23 23 22 22 22 23 23 24 24 26 27 28 29 30 30 31 32 32 32 33 33 33 33 33 34 35
20 19 19 18 17 17 17 17 18 18 18 18 19 19 19 20 20 21 21 22 22 22 23 23 23 24 24 25 27 28 29 30 30 31 31 32 32 32 32 32 33 33 34
17 17 16 17 16 16 16 16 16 17 18 19 19 19 19 20 20 20 20 20 21 21 22 22 23 23 24 24 26 26 27 28 29 29 31 32 32 32 32 32 33 32 32
16 16 16 16 16 16 16 16 16 17 18 18 19 20 20 20 20 20 19 19 19 20 21 21 21 21 22 23 24 25 25 26 27 28 29 29 30 31 31 31 32 31 31
16 16 16 16 16 16 16 17 17 17 18 19 19 20 20 20 20 20 20 19 19 18 18 19 19 19 19 20 21 22 22 23 25 26 26 27 28 29 30 30 31 31 31
16 17 17 17 17 16 16 18 18 18 18 19 19 19 19 19 19 20 19 19 18 17 17 17 17 17 18 18 20 20 21 22 23 24 25 25 26 27 28 29 30 31 30
Wind_Direction
280 280 281 281 282 283 282 281 279 278 277 277 277 275 273 272 270 270 269 269 267 269 268 264 265 261 254 250 251 251 252 252 252 252 251 248 245 245 245 244 244 244 244
281 279 280 280 282 282 281 281 280 278 276 276 275 273 272 271 270 270 270 268 266 266 266 264 262 261 256 254 253 252 252 252 252 251 250 248 247 246 246 246 246 245 246
281 282 281 281 282 281 281 283 281 279 277 276 275 274 272 271 270 268 268 267 266 265 264 264 263 262 259 256 254 254 253 252 252 252 250 248 247 247 247 247 247 247 248
284 281 280 282 281 281 281 283 281 277 276 274 273 273 271 271 270 269 267 266 266 265 264 264 263 262 261 259 256 256 255 254 252 251 250 248 247 247 248 247 247 249 250
282 282 279 281 280 280 281 282 279 278 275 273 273 272 271 270 270 269 267 265 263 263 262 261 261 262 261 259 256 256 255 253 251 251 250 248 248 247 248 249 248 249 251
283 283 282 282 282 281 280 280 278 278 276 275 274 272 270 269 269 267 266 265 263 261 261 260 260 260 261 259 254 253 253 251 251 252 252 250 249 248 249 250 250 250 251
284 284 284 283 283 282 281 281 279 278 276 274 274 273 272 271 270 267 266 265 264 262 261 260 260 259 259 257 252 251 251 250 250 250 252 250 249 249 251 251 252 252 252
285 284 284 285 283 283 283 282 280 278 276 274 273 273 272 272 270 268 266 265 263 263 262 261 260 259 256 255 251 250 251 250 250 251 252 251 250 249 251 252 253 253 253
284 284 283 283 283 283 285 284 281 278 277 275 275 274 273 271 269 268 267 266 265 264 263 261 260 258 256 253 252 250 250 251 251 251 251 250 249 249 249 250 252 253 254
285 284 283 285 285 285 285 284 281 278 277 276 276 275 274 273 270 266 267 267 265 264 262 261 259 257 255 254 253 251 250 251 251 251 250 250 249 249 250 250 252 252 253
288 287 286 285 285 285 284 283 281 278 278 277 276 276 275 274 272 269 266 265 264 263 261 260 258 256 254 253 253 252 252 251 251 251 251 250 249 249 249 250 250 251 252
289 288 287 286 286 286 285 282 280 280 280 277 277 276 275 274 272 271 269 267 265 264 262 260 257 255 254 253 253 252 252 251 250 250 251 251 250 249 248 249 250 251 251
288 287 288 287 285 286 287 284 282 281 279 278 277 276 276 275 273 273 271 269 266 264 263 261 258 256 255 253 253 251 251 250 250 249 250 250 250 249 248 249 250 250 251
290 290 289 288 286 286 287 287 283 281 280 280 279 277 276 276 275 274 271 269 267 265 263 261 260 258 256 254 252 252 251 250 249 248 248 248 248 248 248 248 249 250 252
293 290 289 290 289 289 287 287 285 282 281 281 281 280 278 276 277 275 273 271 269 268 264 262 260 259 256 254 254 253 253 251 250 249 247 246 247 248 248 247 248 250 251
296 294 294 291 290 290 289 289 287 284 282 280 282 281 279 277 277 275 273 272 271 270 267 264 261 258 255 253 253 254 254 252 252 251 249 248 247 247 247 246 248 249 250
299 296 295 293 291 291 292 291 288 288 286 283 283 282 279 278 277 275 274 273 273 271 269 265 263 259 255 253 253 253 253 253 251 251 250 248 248 247 247 246 247 248 248
302 300 297 295 293 292 293 294 291 290 289 287 285 283 279 276 277 276 276 275 274 273 271 266 263 259 256 254 254 254 254 253 251 251 250 248 248 247 247 247 247 247 247
305 303 299 296 293 294 293 294 294 293 292 289 287 285 281 278 277 277 276 276 276 275 273 269 266 262 259 256 254 255 255 253 252 251 251 249 249 248 248 248 248 248 248
307 305 302 299 298 297 296 295 296 295 295 293 291 288 285 283 282 280 278 277 277 276 275 273 269 264 260 257 256 256 256 254 253 252 251 250 250 250 249 250 250 249 247
312 311 309 306 304 300 296 299 299 296 295 295 295 294 291 289 287 283 282 280 280 278 276 275 272 267 262 258 256 257 257 256 255 252 251 251 251 251 251 251 250 250 249
317 317 315 312 309 307 304 301 301 299 297 297 298 299 297 295 293 290 287 286 284 281 277 276 274 270 265 259 257 258 257 256 255 252 252 252 252 251 251 251 250 250 250
325 322 321 320 317 313 309 307 307 309 304 298 298 299 298 298 297 294 290 288 285 282 281 279 277 272 267 262 260 259 258 257 256 255 254 254 252 252 251 250 251 251 251
335 332 328 323 321 319 315 314 313 312 311 309 304 301 300 301 300 297 293 289 287 284 283 282 281 277 271 264 262 260 258 259 259 258 256 253 252 251 250 251 250 249 251
343 342 338 332 328 323 322 321 318 316 316 313 310 307 304 301 300 299 296 293 289 286 283 283 281 279 275 270 264 261 261 261 261 258 256 254 252 251 251 251 251 251 252
347 347 344 340 336 330 327 323 320 318 317 316 314 311 309 306 303 302 297 293 291 287 288 287 284 281 276 273 270 265 263 261 260 258 256 254 253 253 251 251 251 251 251
Height
5843 5842 5842 5840 5839 5838 5837 5836 5835 5834 5834 5833 5833 5833 5833 5833 5833 5833 5833 5832 5832 5833 5833 5833 5833 5834 5835 5836 5837 5838 5840 5841 5841 5842 5843 5845 5846 5847 5849 5850 5851 5853 5854
5838 5837 5836 5835 5833 5832 5831 5830 5829 5828 5828 5827 5827 5827 5827 5827 5827 5827 5827 5827 5827 5827 5827 5827 5828 5829 5829 5830 5832 5833 5834 5835 5836 5837 5838 5840 5841 5843 5844 5845 5847 5848 5849
5832 5831 5830 5829 5827 5826 5825 5824 5823 5822 5822 5821 5821 5820 5820 5820 5820 5820 5820 5821 5821 5821 5821 5822 5822 5822 5823 5824 5825 5827 5828 5829 5831 5832 5833 5834 5836 5838 5839 5840 5842 5843 5845
5827 5825 5824 5823 5821 5820 5818 5817 5816 5816 5815 5815 5814 5814 5813 5813 5813 5813 5814 5814 5814 5814 5815 5815 5815 5816 5816 5817 5819 5820 5821 5823 5825 5826 5827 5829 5830 5832 5833 5835 5836 5838 5839
5820 5819 5817 5816 5814 5813 5812 5811 5810 5809 5808 5807 5807 5806 5806 5805 5805 5806 5806 5806 5806 5806 5807 5808 5808 5809 5810 5810 5811 5813 5814 5816 5817 5819 5821 5822 5824 5826 5827 5829 5830 5832 5833
5814 5812 5810 5809 5807 5806 5805 5804 5803 5801 5801 5800 5799 5799 5798 5797 5797 5797 5797 5798 5798 5798 5799 5800 5801 5801 5802 5802 5804 5805 5807 5808 5810 5812 5814 5816 5817 5819 5821 5822 5824 5826 5827
5807 5805 5803 5802 5800 5799 5797 5796 5795 5793 5792 5792 5791 5791 5790 5789 5789 5789 5789 5789 5789 5789 5790 5791 5792 5793 5794 5795 5796 5798 5799 5801 5803 5805 5806 5808 5810 5812 5814 5816 5817 5819 5821
5800 5798 5797 5795 5793 5791 5790 5788 5787 5785 5784 5783 5783 5782 5782 5781 5780 5780 5780 5780 5780 5781 5781 5782 5783 5784 5786 5787 5788 5790 5791 5793 5795 5797 5799 5801 5803 5805 5807 5809 5810 5812 5814
5792 5790 5788 5787 5785 5783 5781 5780 5778 5776 5775 5774 5774 5773 5773 5772 5772 5772 5771 5771 5771 5771 5772 5773 5774 5775 5777 5778 5780 5782 5784 5786 5787 5789 5791 5793 5796 5797 5799 5801 5803 5805 5806
5785 5783 5781 5779 5777 5775 5773 5771 5769 5768 5767 5766 5765 5764 5764 5763 5763 5763 5763 5762 5762 5762 5762 5763 5764 5766 5767 5769 5771 5773 5775 5777 5779 5781 5783 5785 5787 5789 5791 5793 5795 5797 5798
5777 5775 5773 5771 5769 5767 5765 5763 5761 5759 5758 5757 5756 5755 5755 5754 5753 5754 5754 5753 5753 5752 5753 5754 5754 5756 5758 5760 5762 5764 5766 5768 5770 5772 5775 5777 5779 5781 5783 5785 5786 5788 5790
5770 5767 5765 5763 5761 5758 5756 5754 5752 5751 5750 5749 5747 5746 5746 5745 5744 5744 5744 5744 5744 5743 5743 5744 5745 5747 5748 5750 5752 5754 5756 5758 5760 5763 5765 5768 5770 5772 5774 5776 5778 5780 5781
5762 5759 5757 5755 5753 5751 5748 5746 5744 5743 5741 5740 5739 5738 5737 5736 5735 5735 5735 5734 5735 5735 5735 5734 5735 5737 5738 5740 5742 5743 5746 5748 5750 5753 5756 5758 5760 5763 5765 5767 5769 5771 5773
5754 5752 5749 5747 5745 5743 5741 5739 5737 5735 5733 5732 5731 5730 5729 5727 5726 5725 5725 5725 5725 5726 5726 5726 5726 5727 5728 5730 5732 5734 5735 5738 5740 5743 5746 5748 5751 5753 5756 5758 5760 5762 5764
5746 5744 5741 5739 5737 5735 5733 5731 5729 5727 5725 5724 5723 5721 5720 5719 5718 5716 5716 5716 5716 5716 5717 5717 5717 5717 5719 5721 5722 5724 5726 5728 5730 5732 5735 5738 5741 5743 5746 5749 5751 5754 5756
5739 5736 5734 5732 5730 5728 5725 5723 5721 5719 5718 5716 5715 5714 5712 5711 5710 5709 5708 5707 5707 5707 5707 5707 5707 5708 5710 5711 5713 5715 5717 5718 5720 5722 5725 5728 5731 5733 5736 5739 5742 5744 5747
5732 5730 5727 5725 5723 5721 5719 5716 5714 5712 5711 5709 5708 5706 5705 5704 5702 5701 5700 5699 5699 5698 5699 5699 5698 5699 5700 5702 5703 5705 5707 5709 5711 5713 5715 5718 5721 5724 5726 5729 5732 5735 5737
5726 5723 5721 5719 5717 5715 5712 5710 5708 5706 5704 5703 5701 5699 5698 5697 5695 5694 5693 5692 5691 5690 5690 5690 5690 5690 5691 5692 5694 5696 5698 5699 5701 5703 5706 5708 5711 5714 5717 5719 5722 5725 5728
5720 5717 5715 5713 5710 5708 5706 5704 5702 5700 5698 5696 5695 5693 5691 5690 5688 5687 5686 5685 5684 5683 5682 5682 5682 5682 5682 5683 5685 5687 5689 5690 5692 5694 5696 5699 5701 5704 5707 5710 5712 5715 5718
5715 5712 5709 5707 5705 5702 5700 5699 5697 5695 5693 5690 5689 5687 5685 5683 5681 5680 5679 5678 5677 5676 5675 5674 5674 5674 5674 5675 5677 5678 5680 5682 5683 5685 5687 5690 5692 5695 5698 5700 5703 5706 5709
5710 5707 5704 5702 5699 5697 5695 5693 5692 5689 5688 5685 5683 5681 5679 5677 5675 5674 5673 5671 5670 5669 5668 5667 5667 5667 5667 5668 5669 5670 5672 5673 5675 5676 5679 5681 5683 5686 5688 5691 5693 5696 5699
5706 5703 5700 5697 5695 5693 5691 5689 5687 5684 5682 5680 5678 5676 5674 5672 5670 5668 5667 5665 5664 5663 5662 5661 5661 5660 5660 5660 5661 5662 5663 5665 5667 5669 5670 5672 5674 5677 5679 5682 5685 5687 5690
5702 5699 5696 5694 5691 5689 5687 5684 5682 5680 5678 5676 5674 5671 5669 5667 5665 5663 5661 5660 5658 5657 5656 5655 5654 5653 5653 5653 5654 5655 5656 5657 5658 5659 5661 5663 5666 5668 5671 5673 5676 5678 5681
5699 5696 5693 5690 5688 5686 5683 5681 5679 5677 5674 5672 5669 5667 5665 5662 5660 5658 5656 5654 5653 5651 5650 5649 5648 5647 5646 5646 5647 5648 5648 5650 5651 5651 5653 5655 5657 5660 5662 5665 5667 5669 5672
5698 5694 5691 5688 5685 5683 5680 5678 5675 5673 5670 5668 5665 5663 5660 5658 5656 5653 5651 5649 5647 5646 5645 5643 5642 5641 5641 5641 5641 5641 5642 5643 5643 5644 5646 5647 5649 5651 5654 5656 5659 5661 5663
5697 5693 5690 5686 5683 5680 5678 5675 5672 5669 5667 5664 5661 5658 5656 5653 5651 5648 5646 5644 5643 5641 5640 5638 5637 5636 5636 5635 5635 5635 5635 5636 5636 5637 5638 5640 5642 5644 5646 5648 5650 5653 5655